PulseSat

PulseSat

INTELSAT 902 (IS-902)

Last updated on Feb. 17, 2019, 3:05 a.m. UTC

1 26900U 01039A   19047.11554531  .00000025  00000-0  00000+0 0  9992
2 26900   0.0210 103.9741 0002847 223.0601 282.3347  1.00271438 63916
UTC
Height (km)
Latitude
Longitude
Inclination
Orbital Period

Next 30 passes for location: Hong Kong

Rise time Rise Azimuth (degrees) Set time Set Azimuth (degrees) Duration Max altitude (degrees)

No matching passes for this satellites

PulseSat

PulseSat is the new satellites software and hardware trackering solution by Pulsely.
Satellite Two Line Element Set source: US Air Force Space Command

Download PulseSat for iOS
© 2017 Pulsely Limited